Location: Leeds
(37.2390°N, 113.3580°W)
Time: 10:29:12
(UTC-06:00)

ISS - All Passes

Search period start: 20 September 2017 00:00
Search period end: 30 September 2017 00:00
Orbit: 402 x 407 km, 51.6° (Epoch: 21 September)

Date Brightness Start Highest point End Pass type
(mag) Time Alt. Az. Time Alt. Az. Time Alt. Az.
20 Sep - 00:38:16 10° WNW 00:40:08 14° NNW 00:42:01 10° NNE night (unlit)
20 Sep - 03:54:53 10° N 03:55:40 11° NNE 03:56:27 10° NNE visible
20 Sep - 05:29:38 10° NW 05:32:50 45° NE 05:36:00 10° ESE visible
20 Sep - 07:06:58 10° W 07:09:01 16° SW 07:11:04 10° SSW daylight
20 Sep - 22:07:53 10° SSW 22:11:00 43° SE 22:14:07 10° ENE night (unlit)
20 Sep - 23:45:01 10° W 23:47:35 21° NNW 23:50:12 10° NNE night (unlit)
21 Sep - 04:37:35 10° NNW 04:40:24 26° NNE 04:43:13 10° E visible
21 Sep - 06:13:55 10° WNW 06:16:53 31° SW 06:19:50 10° SSE visible
21 Sep - 21:16:18 10° S 21:18:49 21° SE 21:21:21 10° E visible
21 Sep - 22:52:06 10° WSW 22:55:08 34° NW 22:58:11 10° NE night (unlit)
22 Sep - 03:45:39 10° NNW 03:47:53 17° NNE 03:50:06 10° ENE night (unlit)
22 Sep - 05:21:23 10° NW 05:24:39 68° SW 05:27:55 10° SE visible
22 Sep - 20:26:19 10° SE 20:26:42 10° SE 20:27:05 10° ESE visible
22 Sep - 21:59:29 10° WSW 22:02:44 67° NW 22:06:00 10° NE visible
22 Sep - 23:38:11 10° NW 23:39:44 13° NNW 23:41:16 10° N night (unlit)
23 Sep - 02:53:58 10° N 02:55:16 12° NNE 02:56:34 10° NE night (unlit)
23 Sep - 04:29:04 10° NW 04:32:20 57° NE 04:35:34 10° ESE night (unlit)
23 Sep - 06:07:02 10° WSW 06:08:26 12° SW 06:09:49 10° SSW visible
23 Sep - 21:07:13 10° SW 21:10:25 56° SE 21:13:38 10° ENE visible
23 Sep - 22:44:46 10° WNW 22:47:07 18° NNW 22:49:30 10° NNE night (unlit)
24 Sep - 03:36:55 10° NNW 03:39:54 30° NNE 03:42:51 10° E night (unlit)
24 Sep - 05:13:32 10° WNW 05:16:17 24° SW 05:19:00 10° S night (unlit)
24 Sep - 20:15:24 10° S 20:18:10 26° SE 20:20:59 10° ENE visible
24 Sep - 21:51:42 10° W 21:54:35 28° NNW 21:57:30 10° NNE visible
25 Sep - 02:44:55 10° NNW 02:47:22 19° NNE 02:49:49 10° ENE night (unlit)
25 Sep - 04:20:50 10° WNW 04:24:02 51° SW 04:27:14 10° SSE night (unlit)
25 Sep - 19:24:24 10° SSE 19:26:00 13° SE 19:27:37 10° E daylight
25 Sep - 20:58:56 10° WSW 21:02:08 52° NW 21:05:21 10° NE visible
25 Sep - 22:38:05 10° NW 22:39:13 11° NNW 22:40:20 10° N visible
26 Sep - 01:53:05 10° N 01:54:45 13° NNE 01:56:25 10° NE night (unlit)
26 Sep - 03:28:24 10° NW 03:31:42 73° NE 03:34:58 10° SE night (unlit)
26 Sep - 20:06:30 10° SW 20:09:45 74° SE 20:13:01 10° NE visible
26 Sep - 21:44:26 10° WNW 21:46:33 16° NNW 21:48:40 10° NNE visible
27 Sep - 02:36:10 10° NW 02:39:16 37° NE 02:42:21 10° ESE night (unlit)
27 Sep - 04:13:07 10° W 04:15:33 19° SW 04:17:58 10° S night (unlit)
27 Sep - 19:14:28 10° SSW 19:17:26 33° SE 19:20:26 10° ENE daylight
27 Sep - 20:51:13 10° W 20:53:57 24° NNW 20:56:42 10° NNE visible
28 Sep - 01:44:05 10° NNW 01:46:44 22° NNE 01:49:23 10° E night (unlit)
28 Sep - 03:20:12 10° WNW 03:23:18 39° SW 03:26:23 10° SSE night (unlit)
28 Sep - 18:23:02 10° S 18:25:12 17° SE 18:27:22 10° E daylight
28 Sep - 19:58:18 10° WSW 20:01:24 41° NW 20:04:33 10° NE visible
28 Sep - 21:38:10 10° NNW 21:38:35 10° NNW 21:39:01 10° N visible
29 Sep - 00:52:07 10° NNW 00:54:06 15° NNE 00:56:04 10° ENE night (unlit)
29 Sep - 02:27:39 10° NW 02:30:57 87° SW 02:34:13 10° SE night (unlit)
29 Sep - 19:05:42 10° SW 19:08:58 85° NW 19:12:14 10° NE daylight
29 Sep - 20:44:01 10° WNW 20:45:52 14° NNW 20:47:41 10° N visible
